sat.trackr.live / text

‹ back to catalog

STARLINK-31718

NORAD 59556 · 2024-074Y

PAYLOAD ACTIVE UNKNOWN

§ Identity

Operator
Country
US
Launch date
2024-04-18
Launch site
AFETR
Launch vehicle
Mass (kg)
RCS (m²)

Purposes: comms

External: N2YO · Heavens-Above · Gunter

§ Orbital elements

Epoch: 2026-05-24T17:54:03.896352Z

Period
94.27 min
Inclination
43.0020°
Eccentricity
0.0001569
Mean motion
15.27580613 rev/d
Perigee alt
482.0 km
Apogee alt
484.1 km
Semi-major
6,861.2 km
B*
5.1205e-5
RAAN
274.2140°
Arg perigee
284.3508°
Mean anomaly
75.7169°
Rev number
11,764

§ Raw data

STARLINK-317181 59556U 24074Y   26144.74587843  .00001147  00000+0  51205-4 0  99992 59556  43.0020 274.2140 0001569 284.3508  75.7169 15.27580613117644

JSON: /api/v1/satellites/59556 · /tle

For live sub-satellite position, see the globe view (requires WebGL).

§ Visibility from observer

Set your observer location to see the next 7 days of passes ≥ 10°. The values pass through the URL so the page stays shareable.

No JS? Fill the form by hand. The geolocation button needs JavaScript.